Tracking 17143 objects as of 25-May-2015
HD Live streaming from Space Station

SDS-4

Track SDS-4 now!
10-day predictions
SDS-4 is classified as:


NORAD ID: 38339
Int'l Code: 2012-025C
Perigee: 662.3 km
Apogee: 674.6 km
Inclination: 98.3 °
Period: 98.0 minutes
Semi major axis: 7039 km
RCS: 0.47 m2 (medium)
Launch date: May 17, 2012
Source: Japan (JPN)
Your satellite tracking list
Your tracking list is empty





NASA's NSSDC Master Catalog

Two Line Element Set (TLE):
1 38339U 12025C   15145.13792363  .00000433  00000-0  80884-4 0  9998
2 38339 098.3114 109.1595 0008746 130.5612 229.6356 14.69934441161801

Source of the keplerian elements: AFSPC

N2YO: 344